1366588833892,0.773044
1366588893892,0.758319
1366588953892,0.767927
1366589013892,0.762413
1366589073892,0.758161
1366589133892,0.772776
1366589193892,0.764419
1366589253892,0.764997
1366589313892,0.766685
1366589373892,0.765430
1366589433892,0.763832
1366589493892,0.766589
1366589553892,0.762155
1366589613892,0.760897
1366589673892,0.756608
1366589733892,0.761679
1366589793892,0.758594
1366589853892,0.761835
1366589913892,0.766757
1366589973892,0.762858
1366590033892,0.768867
1366590093892,0.764008
1366590153892,0.761175
1366590213892,0.758456
1366590273892,0.758437
1366590333892,0.756772
1366590393892,0.756059
1366590453892,0.753943
1366590513892,0.760893
1366590573892,0.760479
1366590633892,0.761776
1366590693892,0.757185
1366590753892,0.749133
1366590813892,0.756929
1366590873892,0.756769
1366590933892,0.757475
1366590993892,0.756813
1366591053892,0.755424
1366591113892,0.751619
1366591173892,0.763290
1366591233892,0.761117
1366591293892,0.754821
1366591353892,0.756517
1366591413892,0.756846
1366591473892,0.760136
1366591533892,0.755999
1366591593892,0.759008
1366591653892,0.754014
1366591713892,0.758694
1366591773892,0.752877
1366591833892,0.748390
1366591893892,0.752027
1366591953892,0.754233
1366592013892,0.748705
1366592073892,0.752785
1366592133892,0.749172
1366592193892,0.751038
1366592253892,0.754964
1366592313892,0.750426
1366592373892,0.765429
1366592433903,0.768266
1366592493903,0.767026
1366592553903,0.760341
1366592613903,0.757229
1366592673903,0.752494
1366592733903,0.754367
1366592793903,0.749440
1366592853903,0.756518
1366592913903,0.754369
1366592973903,0.750434
1366593033903,0.753153
1366593093903,0.746208
1366593153903,0.749001
1366593213903,0.746678
1366593273903,0.744135
1366593333903,0.746201
1366593393903,0.750679
1366593453903,0.745003
1366593513903,0.748564
1366593573903,0.750175
1366593633903,0.752873
1366593693903,0.748409
1366593753903,0.745908
1366593813903,0.750260
1366593873903,0.754019
1366593933903,0.745772
1366593993903,0.753460
1366594053903,0.742495
1366594113903,0.752190
1366594173903,0.754453
1366594233903,0.753625
1366594293903,0.750798
1366594353903,0.753065
1366594413903,0.756221
1366594473903,0.746576
1366594533903,0.748905
1366594593903,0.751613
1366594653903,0.755646
1366594713903,0.754306
1366594773903,0.756517
1366594833903,0.757941
1366594893903,0.750275
1366594953903,0.754836
1366595013903,0.748603
1366595073903,0.751827
1366595133903,0.750316
1366595193903,0.748530
1366595253903,0.750409
1366595313903,0.748555
1366595373903,0.751702
1366595433903,0.752378
1366595493903,0.747774
1366595553903,0.748928
1366595613903,0.750183
1366595673903,0.753030
1366595733903,0.746470
1366595793903,0.752161
1366595853903,0.747481
1366595913903,0.749825
1366595973903,0.748887
1366596033914,0.751762
1366596093914,0.747965
1366596153914,0.746048
1366596213914,0.746352
1366596273914,0.743946
1366596333914,0.743034
1366596393914,0.743224
1366596453914,0.745968
1366596513914,0.752662
1366596573914,0.748259
1366596633914,0.746637
1366596693914,0.743715
1366596753914,0.746315
1366596813914,0.747391
1366596873914,0.745937
1366596933914,0.746081
1366596993914,0.758225
1366597053914,0.747134
1366597113914,0.758357
1366597173914,0.746646
1366597233914,0.751951
1366597293914,0.752299
1366597353914,0.748419
1366597413914,0.746509
1366597473914,0.746903
1366597533914,0.745017
1366597593914,0.751911
1366597653914,0.749139
1366597713914,0.745271
1366597773914,0.748643
1366597833914,0.747343
1366597893914,0.748768
1366597953914,0.750132
1366598013914,0.750917
1366598073914,0.752414
1366598133914,0.754183
1366598193914,0.768256
1366598253914,0.763625
1366598313914,0.766440
1366598373914,0.763242
1366598433914,0.771820
1366598493914,0.762499
1366598553914,0.762091
1366598613914,0.759540
1366598673914,0.759393
1366598733914,0.765805
1366598793914,0.760705
1366598853914,0.764783
1366598913914,0.754450
1366598973914,0.767008
1366599033914,0.760360
1366599093914,0.760918
1366599153914,0.761319
1366599213914,0.759878
1366599273914,0.754965
1366599333914,0.759306
1366599393914,0.759161
1366599453914,0.750679
1366599513914,0.763837
1366599573914,0.755366
1366599633925,0.756118
1366599693925,0.753729
1366599753925,0.759335
1366599813925,0.752699
1366599873925,0.757202
1366599933925,0.748059
1366599993925,0.748844
1366600053925,0.752593
1366600113925,0.747304
1366600173925,0.748631
1366600233925,0.762191
1366600293925,0.747118
1366600353925,0.750538
1366600413925,0.747192
1366600473925,0.748407
1366600533925,0.752879
1366600593925,0.745311
1366600653925,0.749710
1366600713925,0.750911
1366600773925,0.751920
1366600833925,0.750432
1366600893925,0.746925
1366600953925,0.749912
1366601013925,0.743766
1366601073925,0.752241
1366601133925,0.744041
1366601193925,0.742736
1366601253925,0.749388
1366601313925,0.749067
1366601373925,0.746095
1366601433925,0.754240
1366601493925,0.752070
1366601553925,0.754520
1366601613925,0.746925
1366601673925,0.744515
1366601733925,0.750738
1366601793925,0.754947
1366601853925,0.760454
1366601913925,0.764309
1366601973925,0.746419
1366602033925,0.760589
1366602093925,0.751963
1366602153925,0.751559
1366602213925,0.748661
1366602273925,0.753102
1366602333925,0.749513
1366602393925,0.758077
1366602453925,0.757017
1366602513925,0.752985
1366602573925,0.754494
1366602633925,0.754582
1366602693925,0.752072
1366602753925,0.757444
1366602813925,0.751754
1366602873925,0.756903
1366602933925,0.748076
1366602993925,0.754532
1366603053925,0.753372
1366603113925,0.758190
1366603173925,0.759873
1366603233936,0.753752
1366603293936,0.747095
1366603353936,0.749664
1366603413936,0.750054
1366603473936,0.756264
1366603533936,0.751255
1366603593936,0.758803
1366603653936,0.751529
1366603713936,0.756238
1366603773936,0.761828
1366603833936,0.756080
1366603893936,0.761538
1366603953936,0.761539
1366604013936,0.760785
1366604073936,0.758703
1366604133936,0.755877
1366604193936,0.760539
1366604253936,0.756474
1366604313936,0.757646
1366604373936,0.755334
1366604433936,0.755355
1366604493936,0.756337
1366604553936,0.761993
1366604613936,0.759294
1366604673936,0.756481
1366604733936,0.758646
1366604793936,0.759589
1366604853936,0.752464
1366604913936,0.757467
1366604973936,0.755402
1366605033936,0.752896
1366605093936,0.752781
1366605153936,0.746231
1366605213936,0.752249
1366605273936,0.752738
1366605333936,0.756412
1366605393936,0.752940
1366605453936,0.756732
1366605513936,0.758223
1366605573936,0.764484
1366605633936,0.761869
1366605693936,0.759100
1366605753936,0.766543
1366605813936,0.755034
1366605873936,0.766274
1366605933936,0.769670
1366605993936,0.759150
1366606053936,0.759709
1366606113936,0.770227
1366606173936,0.776233
1366606233936,0.762245
1366606293936,0.766424
1366606353936,0.759842
1366606413936,0.769282
1366606473936,0.764056
1366606533936,0.769019
1366606593936,0.764842
1366606653936,0.763656
1366606713936,0.764206
1366606773936,0.766790
1366606833946,0.758281
1366606893946,0.759415
1366606953946,0.761881
1366607013946,0.760159
1366607073946,0.753705
1366607133946,0.765664
1366607193946,0.761003
1366607253946,0.759912
1366607313946,0.755810
1366607373946,0.756834
1366607433946,0.759469
1366607493946,0.763481
1366607553946,0.758298
1366607613946,0.763150
1366607673946,0.757377
1366607733946,0.750938
1366607793946,0.763191
1366607853946,0.764669
1366607913946,0.756417
1366607973946,0.763185
1366608033946,0.765119
1366608093946,0.766895
1366608153946,0.770036
1366608213946,0.766020
1366608273946,0.755036
1366608333946,0.761007
1366608393946,0.761134
1366608453946,0.765158
1366608513946,0.756487
1366608573946,0.761455
1366608633946,0.760124
1366608693946,0.755888
1366608753946,0.760963
1366608813946,0.759866
1366608873946,0.756185
1366608933946,0.754016
1366608993946,0.757755
1366609053946,0.760000
1366609113946,0.757600
1366609173946,0.757919
1366609233946,0.751667
1366609293946,0.759639
1366609353946,0.765301
1366609413946,0.760047
1366609473946,0.755113
1366609533946,0.756194
1366609593946,0.755491
1366609653946,0.762691
1366609713946,0.759537
1366609773946,0.761487
1366609833946,0.764766
1366609893946,0.758193
1366609953946,0.767333
1366610013946,0.774888
1366610073946,0.756164
1366610133946,0.763702
1366610193946,0.765301
1366610253946,0.766036
1366610313946,0.765108
1366610373946,0.762090
1366610433957,0.762617
1366610493957,0.767643
1366610553957,0.763110
1366610613957,0.765294
1366610673957,0.759488
1366610733957,0.760232
1366610793957,0.752980
1366610853957,0.756646
1366610913957,0.760097
1366610973957,0.764828
1366611033957,0.766713
1366611093957,0.764081
1366611153957,0.773597
1366611213957,0.777624
1366611273957,0.772374
1366611333957,0.779734
1366611393957,0.778601
1366611453957,0.776387
1366611513957,0.776422
1366611573957,0.767977
1366611633957,0.764476
1366611693957,0.765962
1366611753957,0.765929
1366611813957,0.761104
1366611873957,0.763680
1366611933957,0.758644
1366611993957,0.763427
1366612053957,0.762115
1366612113957,0.764290
1366612173957,0.764946
1366612233957,0.762826
1366612293957,0.761168
1366612353957,0.756714
1366612413957,0.763205
1366612473957,0.754374
1366612533957,0.761500
1366612593957,0.760992
1366612653957,0.765567
1366612713957,0.762361
1366612773957,0.760171
1366612833957,0.761926
1366612893957,0.762827
1366612953957,0.764458
1366613013957,0.763760
1366613073957,0.761225
1366613133957,0.759612
1366613193957,0.761191
1366613253957,0.763413
1366613313957,0.759022
1366613373957,0.765488
1366613433957,0.759762
1366613493957,0.761502
1366613553957,0.757740
1366613613957,0.754115
1366613673957,0.757511
1366613733957,0.765673
1366613793957,0.754238
1366613853957,0.756200
1366613913957,0.761678
1366613973957,0.761313
1366614033967,0.766086
1366614093967,0.770177
1366614153967,0.757801
1366614213967,0.757606
1366614273967,0.761226
1366614333967,0.755941
1366614393967,0.757484
1366614453967,0.757417
1366614513967,0.763299
1366614573967,0.765708
1366614633967,0.764913
1366614693967,0.762858
1366614753967,0.771430
1366614813967,0.776055
1366614873967,0.773134
1366614933967,0.781261
1366614993967,0.768546
1366615053967,0.762126
1366615113967,0.763647
1366615173967,0.756037
1366615233967,0.764050
1366615293967,0.765606
1366615353967,0.761149
1366615413967,0.764324
1366615473967,0.765552
1366615533967,0.764650
1366615593967,0.764308
1366615653967,0.768641
1366615713967,0.778259
1366615773967,0.767513
1366615833967,0.772993
1366615893967,0.765090
1366615953967,0.759395
1366616013967,0.766776
1366616073967,0.765173
1366616133967,0.766340
1366616193967,0.764432
1366616253967,0.765157
1366616313967,0.759341
1366616373967,0.758603
1366616433967,0.762033
1366616493967,0.762634
1366616553967,0.758999
1366616613967,0.762266
1366616673967,0.760285
1366616733967,0.766324
1366616793967,0.754880
1366616853967,0.762280
1366616913967,0.765348
1366616973967,0.764261
1366617033967,0.761787
1366617093967,0.759388
1366617153967,0.767283
1366617213967,0.766279
1366617273967,0.758855
1366617333967,0.762499
1366617393967,0.758560
1366617453967,0.759880
1366617513967,0.761401
1366617573967,0.762827
1366617633978,0.760558
1366617693978,0.766980
1366617753978,0.762574
1366617813978,0.762654
1366617873978,0.763960
1366617933978,0.766505
1366617993978,0.757666
1366618053978,0.766836
1366618113978,0.762176
1366618173978,0.767349
1366618233978,0.766366
1366618293978,0.760543
1366618353978,0.775944
1366618413978,0.766936
1366618473978,0.759604
1366618533978,0.760039
1366618593978,0.766469
1366618653978,0.762335
1366618713978,0.762561
1366618773978,0.758138
1366618833978,0.760984
1366618893978,0.762866
1366618953978,0.763995
1366619013978,0.769863
1366619073978,0.759197
1366619133978,0.759650
1366619193978,0.758883
1366619253978,0.765289
1366619313978,0.764435
1366619373978,0.767173
1366619433978,0.759862
1366619493978,0.762515
1366619553978,0.762473
1366619613978,0.758477
1366619673978,0.767145
1366619733978,0.765232
1366619793978,0.765559
1366619853978,0.753357
1366619913978,0.764621
1366619973978,0.762015
1366620033978,0.765685
1366620093978,0.761574
1366620153978,0.761718
1366620213978,0.762836
1366620273978,0.763704
1366620333978,0.763961
1366620393978,0.768977
1366620453978,0.756514
1366620513978,0.772977
1366620573978,0.758280
1366620633978,0.763152
1366620693978,0.761424
1366620753978,0.765061
1366620813978,0.769920
1366620873978,0.775042
1366620933978,0.760920
1366620993978,0.766920
1366621053978,0.762345
1366621113978,0.769893
1366621173978,0.762555
1366621233988,0.763452
1366621293988,0.765188
1366621353988,0.769017
1366621413988,0.765665
1366621473988,0.771166
1366621533988,0.773666
1366621593988,0.766795
1366621653988,0.761498
1366621713988,0.762498
1366621773988,0.767528
1366621833988,0.763456
1366621893988,0.764955
1366621953988,0.764385
1366622013988,0.766148
1366622073988,0.769785
1366622133988,0.766980
1366622193988,0.768551
1366622253988,0.776110
1366622313988,0.770823
1366622373988,0.766875
1366622433988,0.771990
1366622493988,0.766609
1366622553988,0.768275
1366622613988,0.769701
1366622673988,0.777839
1366622733988,0.776005
1366622793988,0.777975
1366622853988,0.771351
1366622913988,0.777598
1366622973988,0.775677
1366623033988,0.771458
1366623093988,0.775859
1366623153988,0.776525
1366623213988,0.779131
1366623273988,0.773812
1366623333988,0.778499
1366623393988,0.771881
1366623453988,0.776685
1366623513988,0.780431
1366623573988,0.777402
1366623633988,0.778803
1366623693988,0.775962
1366623753988,0.774292
1366623813988,0.779305
1366623873988,0.775590
1366623933988,0.776245
1366623993988,0.782085
1366624053988,0.778034
1366624113988,0.781005
1366624173988,0.778237
1366624233988,0.773339
1366624293988,0.776374
1366624353988,0.770668
1366624413988,0.774828
1366624473988,0.775028
1366624533988,0.777030
1366624593988,0.777589
1366624653988,0.770112
1366624713988,0.775205
1366624773988,0.781337
1366624833999,0.777724
1366624893999,0.776460
1366624953999,0.776829
1366625013999,0.767761
1366625073999,0.772834
1366625133999,0.769001
1366625193999,0.773071
1366625253999,0.776307
1366625313999,0.774151
1366625373999,0.776925
1366625433999,0.765275
1366625493999,0.769443
1366625553999,0.779892
1366625613999,0.777492
1366625673999,0.772447
1366625733999,0.777029
1366625793999,0.780474
1366625853999,0.776111
1366625913999,0.766941
1366625973999,0.768110
1366626033999,0.772780
1366626093999,0.772826
1366626153999,0.771145
1366626213999,0.771321
1366626273999,0.786159
1366626333999,0.788455
1366626393999,0.786593
1366626453999,0.815330
1366626513999,0.820578
1366626573999,0.828087
1366626633999,0.851276
1366626693999,0.882121
1366626753999,0.852563
1366626813999,0.813371
1366626873999,0.802107
1366626933999,0.786614
1366626993999,0.770406
1366627053999,0.770118
1366627113999,0.783123
1366627173999,0.774845
1366627233999,0.772448
1366627293999,0.767335
1366627353999,0.769094
1366627413999,0.774089
1366627473999,0.768835
1366627533999,0.761710
1366627593999,0.767275
1366627653999,0.763532
1366627713999,0.765476
1366627773999,0.767512
1366627833999,0.762312
1366627893999,0.760907
1366627953999,0.761539
1366628013999,0.759087
1366628073999,0.767557
1366628133999,0.765035
1366628193999,0.753646
1366628253999,0.761377
1366628313999,0.759031
1366628373999,0.764193
1366628434009,0.760177
1366628494009,0.759400
1366628554009,0.755674
1366628614009,0.762252
1366628674009,0.765503
1366628734009,0.761918
1366628794009,0.762810
1366628854009,0.761475
1366628914009,0.763693
1366628974009,0.764111
1366629034009,0.765606
1366629094009,0.757813
1366629154009,0.770230
1366629214009,0.765311
1366629274009,0.766618
1366629334009,0.765526
1366629394009,0.768057
1366629454009,0.765562
1366629514009,0.770240
1366629574009,0.775871
1366629634009,0.777277
1366629694009,0.771418
1366629754009,0.767582
1366629814009,0.767728
1366629874009,0.756629
1366629934009,0.769417
1366629994009,0.759676
1366630054009,0.761224
1366630114009,0.770993
1366630174009,0.760157
1366630234009,0.763009
1366630294009,0.763368
1366630354009,0.758857
1366630414009,0.768222
1366630474009,0.766566
1366630534009,0.766044
1366630594009,0.766587
1366630654009,0.768989
1366630714009,0.759277
1366630774009,0.764524
1366630834009,0.759074
1366630894009,0.764997
1366630954009,0.760234
1366631014009,0.764537
1366631074009,0.761307
1366631134009,0.763331
1366631194009,0.758814
1366631254009,0.752675
1366631314009,0.764350
1366631374009,0.755579
1366631434009,0.762142
1366631494009,0.766020
1366631554009,0.767255
1366631614009,0.764622
1366631674009,0.764974
1366631734009,0.765699
1366631794009,0.770533
1366631854009,0.773715
1366631914009,0.772721
1366631974009,0.765583
1366632034020,0.772577
1366632094020,0.765654
1366632154020,0.765685
1366632214020,0.760512
1366632274019,0.759592
1366632334019,0.762886
1366632394019,0.758548
1366632454019,0.762419
1366632514019,0.751829
1366632574019,0.752863
1366632634019,0.752451
1366632694019,0.753403
1366632754019,0.763859
1366632814019,0.752533
1366632874019,0.755789
1366632934019,0.754740
1366632994019,0.760158
1366633054019,0.762622
1366633114019,0.764322
1366633174019,0.753580
1366633234019,0.768372
1366633294020,0.766116
1366633354020,0.765730
1366633414020,0.759978
1366633474020,0.762956
1366633534020,0.767370
1366633594020,0.761000
1366633654019,0.758314
1366633714019,0.760542
1366633774019,0.760108
1366633834019,0.753247
1366633894019,0.751879
1366633954019,0.756915
1366634014019,0.753914
1366634074019,0.765547
1366634134019,0.758108
1366634194019,0.757554
1366634254019,0.746466
1366634314019,0.751338
1366634374019,0.750438
1366634434019,0.757682
1366634494019,0.751793
1366634554019,0.754001
1366634614020,0.745615
1366634674020,0.755438
1366634734020,0.754712
1366634794020,0.754425
1366634854020,0.757157
1366634914020,0.755293
1366634974019,0.752299
1366635034019,0.752193
1366635094019,0.746947
1366635154019,0.760839
1366635214019,0.751966
1366635274019,0.747107
1366635334019,0.758825
1366635394019,0.750697
1366635454019,0.746397
1366635514019,0.753127
1366635574019,0.756756
1366635634030,0.751994
1366635694030,0.757335
1366635754030,0.757396
1366635814030,0.755686
1366635874030,0.759231
1366635934030,0.754789
1366635994030,0.794219
1366636054030,0.753861
1366636114030,0.755407
1366636174030,0.761493
1366636234030,0.754569
1366636294030,0.761194
1366636834030,0.758461
1366636894030,0.759712
1366636954030,0.752138
1366637014030,0.753090
1366637074030,0.757042
1366637134030,0.760049
1366637194030,0.763482
1366637254030,0.762933
1366637314030,0.762621
1366637374030,0.762511
1366637434030,0.769093
1366637494030,0.759428
1366637554030,0.765226
1366637614030,0.758687
1366637674030,0.767250
1366637734030,0.766217
1366637794030,0.769291
1366637854030,0.769102
1366637914030,0.767871
1366637974030,0.769388
1366638034030,0.769565
1366638094030,0.764650
1366638154030,0.758634
1366638214030,0.769288
1366638274030,0.768436
1366638334030,0.773999
1366638394030,0.765447
1366638454030,0.769887
1366638514030,0.761815
1366638574030,0.771733
1366638634030,0.769865
1366638694030,0.765016
1366638754030,0.771621
1366638814030,0.776302
1366638874030,0.773644
1366638934030,0.767584
1366638994030,0.768958
1366639054030,0.759912
1366639114030,0.769829
1366639174030,0.769208
1366639234040,0.773180
1366639294040,0.769679
1366639354040,0.769946
1366639414040,0.769145
1366639474040,0.761567
1366639534040,0.770592
1366639594040,0.765084
1366639654040,0.771653
1366639714040,0.761848
1366639774040,0.768518
1366639834040,0.769116
1366639894040,0.772489
1366639954040,0.773765
1366640014040,0.768450
1366640074040,0.780783
1366640134040,0.771910
1366640194040,0.772677
1366640254040,0.779778
1366640314040,0.773448
1366640374040,0.776626
1366640434040,0.778218
1366640494040,0.774479
1366640554040,0.769623
1366640614040,0.775560
1366640674040,0.775108
1366640734040,0.769891
1366640794040,0.773894
1366640854040,0.776386
1366640914040,0.778001
1366640974040,0.773211
1366641034040,0.774457
1366641094040,0.768254
1366641154040,0.773051
1366641214040,0.777231
1366641274040,0.776485
1366641334040,0.778589
1366641394040,0.779251
1366641454040,0.780774
1366641514040,0.781911
1366641574040,0.782530
1366641634040,0.775389
1366641694040,0.779889
1366641754040,0.775124
1366641814040,0.786856
1366641874040,0.776411
1366641934040,0.773760
1366641994040,0.764981
1366642054040,0.774517
1366642114040,0.784830
1366642174040,0.781457
1366642234040,0.771993
1366642294040,0.783645
1366642354040,0.777792
1366642414040,0.787188
1366642474040,0.781806
1366642534040,0.784083
1366642594040,0.778727
1366642654040,0.776452
1366642714040,0.785917
1366642774040,0.778921
1366642834050,0.776439
1366642894050,0.786292
1366642954050,0.783155
1366643014050,0.785849
1366643074050,0.785208
1366643134050,0.784235
1366643194050,0.789149
1366643254050,0.787741
1366643314050,0.786419
1366643374050,0.785447
1366643434050,0.789741
1366643494050,0.797179
1366643554050,0.788142
1366643614050,0.794620
1366643674050,0.797797
1366643734050,0.794368
1366643794050,0.788610
1366643854050,0.798384
1366643914050,0.789144
1366643974050,0.794361
1366644034050,0.796683
1366644094050,0.785690
1366644154050,0.795059
1366644214050,0.791371
1366644274050,0.789409
1366644334050,0.786223
1366644394050,0.791547
1366644454050,0.787293
1366644514050,0.792121
1366644574050,0.795726
1366644634050,0.796899
1366644694050,0.803348
1366644754050,0.799407
1366644814050,0.794327
1366644874050,0.796284
1366644934050,0.794730
1366644994050,0.800086
1366645054050,0.793490
1366645114050,0.785473
1366645174050,0.792868
1366645234050,0.791870
1366645294050,0.794728
1366645354050,0.792318
1366645414050,0.790478
1366645474050,0.788023
1366645534050,0.788504
1366645594050,0.788906
1366645654050,0.788847
1366645714050,0.786941
1366645774050,0.781674
1366645834050,0.787725
1366645894050,0.787500
1366645954050,0.792095
1366646014050,0.783862
1366646074050,0.784946
1366646134050,0.793846
1366646194050,0.781599
1366646254050,0.781197
1366646314050,0.788904
1366646374050,0.792992
1366646434060,0.785283
1366646494060,0.788442
1366646554060,0.793684
1366646614060,0.802772
1366646674060,0.787444
1366646734060,0.787914
1366646794060,0.793271
1366646854060,0.792928
1366646914060,0.792390
1366646974060,0.794833
1366647034060,0.793998
1366647094060,0.782606
1366647154060,0.788683
1366647214060,0.790087
1366647274060,0.790136
1366647334060,0.788206
1366647394060,0.785709
1366647454060,0.794301
1366647514060,0.785320
1366647574060,0.791887
1366647634060,0.795794
1366647694060,0.793037
1366647754060,0.797761
1366647814060,0.796442
1366647874060,0.787245
1366647934060,0.794105
1366647994060,0.787901
1366648054060,0.789223
1366648114060,0.791629
1366648174060,0.791863
1366648234060,0.790786
1366648294060,0.787084
1366648354060,0.784708
1366648414060,0.789150
1366648474060,0.785376
1366648534060,0.789349
1366648594060,0.789493
1366648654060,0.781829
1366648714060,0.783852
1366648774060,0.782892
1366648834060,0.786269
1366648894060,0.782734
1366648954060,0.787007
1366649014060,0.784151
1366649074060,0.782466
1366649134060,0.785719
1366649194060,0.791022
1366649254060,0.785590
1366649314060,0.783080
1366649374060,0.788781
1366649434060,0.780294
1366649494060,0.782230
1366649554060,0.779875
1366649614060,0.780495
1366649674060,0.786597
1366649734060,0.785045
1366649794060,0.782888
1366649854060,0.784295
1366649914060,0.781012
1366649974060,0.781451
1366650034070,0.780342
1366650094070,0.780796
1366650154070,0.776356
1366650214070,0.784817
1366650274070,0.781925
1366650334070,0.776834
1366650394070,0.778627
1366650454070,0.787405
1366650514070,0.785969
1366650574070,0.788737
1366650634070,0.784953
1366650694070,0.784062
1366650754070,0.789794
1366650814070,0.779429
1366650874070,0.788244
1366650934070,0.788445
1366650994070,0.783225
1366651054070,0.781502
1366651114070,0.779795
1366651174070,0.786515
1366651234070,0.777069
1366651294070,0.778387
1366651354070,0.778877
1366651414070,0.771024
1366651474070,0.776530
1366651534070,0.784847
1366651594070,0.775639
1366651654070,0.779115
1366651714070,0.780726
1366651774070,0.774131
1366651834070,0.779061